Вернуться в каталог

NOAA 16 DEB

АктивенPO
NORAD 41158·DEBRIS·🇺🇸 United States

Запущен Sep 21, 2000 с Vandenberg Space Force Base

Loading…

Ближайшие Пролёты (ближайшие 24 часа)

TLE

СвежийSource: Space-Track

Эпоха: Sep 14, 2026, 10:02 UTC

1 41158U 00055CR  26257.41805782  .00003547  00000-0  10765-2 0  9996
2 41158  98.9752  64.8361 0009599 281.7589  78.2522 14.42835877559847

Отслеживайте NOAA 16 DEB в реальном времени с AllMySat

Download on the App Store